FALCON 9 R/B, 42819

Orbit data source: Space-Track

FALCON 9 R/B, 42819 is space debris originally from a launch on Wed, 05 Jul 2017 UTC launched from the Air Force Eastern Test Range (AFETR). Debris objects in space refer to the collection of defunct objects orbiting the Earth. Examples of debris include non-operational satellites, rocket bodies, and fragments generated from explosions, collisions, or faulty payload assembly.

Loading next visibility...
FALCON 9 R/B details
Identifier
42819, 2017-041B
Orbit
Molniya
Last TLE update17 hours ago
Origin
Flag of USSpaceX (US)
ManufacturerSpaceX
MissionSpacecraft
Bus & MotorF9ST2, Unknown motor
Mass~4,000 kg wet, ~4,000 kg dry
Launch date (UTC)
2017-07-05 (7 years ago)
Launch vehicleUnknown
Launch site
Air Force Eastern Test Range (AFETR)
Object type
Payload
Rocket body
Debris
Shape & HBRCyl, 15.53 m
Radar Cross Section39.980 m², Large (>1 m²)

Expand to show TLE details & history

TLE from 17 hours ago
0 FALCON 9 R/B
1 42819U 17041B   24348.48655553  .00000919  00000-0  10691-2 0  9997
2 42819  26.4101 359.3141 7476087 134.8575 317.6539  2.02187485 52130
Epoch: 2024-12-13T11:40Z
Definitive object data (Epoch: 2024-12-13T11:40:38.397Z)
Latitude-0.00006°
Longitude101.51004°
Altitude18,231.86 km
Speed4.16 km/s
True Right ascension23h 57m 17s
True Declination0° 00' 00"
Sunlit
Object was in daylight at TLE epoch
Visualization TLE readout
Latitude-23.6386°
Longitude39.55705°
Altitude33,154.675 km
Speed2.254 km/s
Apparent Right ascension19h 20m 32s
Apparent Declination-27° 49' 27"
Sunlit
Object is in daylight
Visualization observer readout
Local Sidereal Time02:46:06
Azimuth259.608° W
Elevation-33.155°
Doppler factor1
Orbital elements
Apogee altitude39,797.113 km
Perigee altitude290.536 km
Semi-major axis26,421.961 km
Eccentricity0.7476087
Inclination26.4101°
RAAN359.3141°
Arg. of periapsis134.8575°
True anomaly225.03662°
Mean anomaly317.6539°
Eccentric anomaly274.98083°
Mean motion0.50535 °/min
BSTAR0.0010691
Orbital period712.37 mins
Loading maneuver chart data...
Loading historical data...
Loading historical data...
Loading historical data...
Loading historical data...
Loading historical data...
Loading historical data...
Loading historical data...
Other satellites on launch #41 in the year 2017 (2017-07-05 UTC)

FALCON 9 R/B Visibility forecast

Observer location: undefined°, undefined

Span
Click to sort rows by Start time (UTC) header in descending order
Start Az.
Max El. time (UTC)
Max El. Az.
Max El.
End time (UTC)
End Az.
262 mins2024-12-14 19:46:14.980Z130.317° SE2024-12-14 23:15:14.980Z136.8° SSE25.206°2024-12-15 00:08:14.980Z104.115° ESE
|